www.pogodaiklimat.ru

Погода и климат >> Архив погоды >> Норвегия >> Маяк Ytteroyane


ПОГОДА на Маяке Ytteroyane

  • Прогноз погоды на Маяке Ytteroyane
  • Монитор погоды на Маяке Ytteroyane

АРХИВ ПОГОДЫ на Маяке Ytteroyane

Время (UTC), дата Ветер
(напр.,м/с)
 
Видим.   Явления Облачность Т
(С)
Тd
(С)
f
(%)
Тe
(С)
Тes
(С)
Комфортность P
(гПа)
Po
(гПа)
Тmin
(С)
Tmax
(С)
R
(мм)
R24
(мм)
S
(см)
10 12.07 штиль 0
{3}
н/о н/о +15.9 +12.7 81 +16 +16 1011.4 1008.4
11 12.07 Ю 1
{3}
н/о н/о +15.2 +12.9 86 +16 +16 1011.6 1008.6
12 12.07
{5}
н/о н/о +14.3 +11.1 81 1011.5 1008.5
13 12.07
{8}
н/о н/о +14.3 +10.7 79 1011.4 1008.4
14 12.07 С 7
{10}
н/о н/о +14.0 +10.4 79 +12 +12 1011.5 1008.5
15 12.07 С 9
{13}
н/о н/о +13.4 +10.2 81 +10 +10 1011.1 1008.1
16 12.07 С 8
{13}
н/о н/о +13.3 +10.3 82 +11 +11 1011.4 1008.4
17 12.07 С 9
{14}
н/о н/о +13.2 +10.0 81 +10 +10 1011.5 1008.5
18 12.07 С 13
{16}
н/о н/о +12.6 +9.8 83 +9 +9 1011.1 1008.1 +12.6 +16.2
19 12.07 С 10
{16}
н/о н/о +12.7 +10.1 84 +9 +9 1011.8 1008.8
20 12.07 С 10
{16}
н/о н/о +12.4 +10.0 85 +9 +9 1012.0 1009.0
21 12.07 С 12
{16}
н/о н/о +12.1 +9.7 85 +8 +8 1012.0 1009.0
22 12.07 С 13
{17}
н/о н/о +12.0 +9.6 85 +8 +8 1012.0 1009.0
23 12.07 С 10
{17}
н/о н/о +11.9 +9.5 85 +8 +8 1012.7 1009.6
00 13.07 С 8
{17}
н/о н/о +11.8 +9.2 84 +8 +8 1013.3 1010.2
01 13.07 С 8
{13}
н/о н/о +11.7 +8.9 83 +8 +8 1013.2 1010.1
02 13.07 С 9
{12}
н/о н/о +11.6 +8.8 83 +8 +8 1013.3 1010.2
03 13.07 С 9
{13}
н/о н/о +11.6 +8.8 83 +8 +8 1013.4 1010.3
04 13.07 С 9
{12}
н/о н/о +11.6 +8.6 82 +8 +8 1013.9 1010.8
05 13.07 С 10
{14}
н/о н/о +11.5 +8.5 82 +8 +8 1013.9 1010.8
06 13.07 С 9
{14}
н/о н/о +11.7 +8.7 82 +8 +8 1014.1 1011.0 +11.5 +12.8
07 13.07 С 10
{13}
н/о н/о +11.9 +8.6 80 +8 +8 1014.2 1011.1
08 13.07 С 9
{14}
н/о н/о +11.8 +9.2 84 +8 +8 1014.6 1011.5
09 13.07 С 11
{15}
н/о н/о +11.7 +8.7 82 +8 +8 1014.3 1011.2
10 13.07 С 12
{15}
н/о н/о +11.7 +9.1 84 +8 +8 1014.3 1011.2
11 13.07 С 12
{16}
н/о н/о +11.8 +9.0 83 +8 +8 1014.5 1011.4
12 13.07 С 13
{17}
н/о н/о +11.7 +8.7 82 +7 +7 1014.6 1011.5
13 13.07 С 13
{17}
н/о н/о +11.9 +8.8 81 +8 +8 1014.7 1011.6
14 13.07 С 13
{17}
н/о н/о +11.9 +8.6 80 +8 +8 1014.9 1011.8
15 13.07 С 13
{17}
н/о н/о +11.9 +8.0 77 +8 +8 1015.1 1012.0
16 13.07 С 13
{18}
н/о н/о +11.9 +8.4 79 +8 +8 1015.3 1012.2
17 13.07 С 12
{17}
н/о н/о +11.9 +8.4 79 +8 +8 1015.1 1012.0
18 13.07 С 13
{18}
н/о н/о +11.8 +8.5 80 +8 +8 1015.5 1012.4 +11.5 +12.0
19 13.07 С 11
{17}
н/о н/о +11.7 +8.2 79 +8 +8 1016.2 1013.1
20 13.07 С 11
{16}
н/о н/о +11.4 +7.9 79 +7 +7 1016.2 1013.1
21 13.07 С 11
{17}
н/о н/о +11.1 +7.6 79 +7 +7 1016.2 1013.1
22 13.07 С 14
{17}
н/о н/о +11.0 +7.7 80 +6 +6 1016.2 1013.1
23 13.07 С 10
{17}
н/о н/о +11.1 +7.6 79 +7 +7 1017.0 1013.9
00 14.07 С 10
{17}
н/о н/о +11.0 +7.3 78 +7 +7 1017.2 1014.1
01 14.07 С 9
{15}
н/о н/о +10.9 +7.2 78 +7 +7 1017.8 1014.7
02 14.07 С 7
{14}
н/о н/о +10.8 +6.9 77 +7 +7 1017.8 1014.7
03 14.07 С 8
{13}
н/о н/о +10.9 +7.0 77 +7 +7 1017.7 1014.6
04 14.07
{13}
н/о н/о +11.0 +6.4 73 1018.3 1015.2
05 14.07
{12}
н/о н/о +11.5 +6.6 72 1018.4 1015.3
06 14.07 С 7
{15}
н/о н/о +11.2 +7.1 76 +8 +8 1018.6 1015.5 +10.8 +11.9
07 14.07 С 9
{12}
н/о н/о +11.4 +6.6 72 +8 +8 1018.9 1015.8
08 14.07 С 8
{13}
н/о н/о +11.2 +8.4 83 +8 +8 1018.9 1015.8
09 14.07 С 11
{13}
н/о н/о +11.2 +7.5 78 +7 +7 1018.9 1015.8
10 14.07 С 11
{14}
н/о н/о +10.8 +8.0 83 +6 +6 1019.0 1015.9
11 14.07 С 11
{13}
н/о н/о +10.8 +8.0 83 +6 +6 1019.0 1015.9
12 14.07 С 12
{14}
н/о н/о +10.9 +7.8 81 +6 +6 1019.2 1016.1
13 14.07 С 11
{14}
н/о н/о +11.1 +8.0 81 +7 +7 1019.0 1015.9
14 14.07 С 13
{15}
н/о н/о +11.4 +8.1 80 +7 +7 1018.7 1015.6
15 14.07 С 12
{16}
н/о н/о +11.3 +8.2 81 +7 +7 1018.9 1015.8
16 14.07 С 13
{15}
н/о н/о +11.4 +7.7 78 +7 +7 1018.6 1015.5
17 14.07 С 10
{16}
н/о н/о +11.5 +7.6 77 +8 +8 1018.8 1015.7
18 14.07 С 13
{16}
н/о н/о +11.3 +8.2 81 +7 +7 1018.7 1015.6 +10.6 +11.6
19 14.07 С 11
{14}
н/о н/о +11.3 +8.0 80 +7 +7 1018.8 1015.7
20 14.07 С 11
{13}
н/о н/о +11.1 +8.2 82 +7 +7 1019.0 1015.9
21 14.07 С 10
{15}
н/о н/о +10.9 +8.0 82 +7 +7 1019.0 1015.9
22 14.07 С 10
{12}
н/о н/о +11.0 +7.9 81 +7 +7 1019.0 1015.9
23 14.07 С 8
{11}
н/о н/о +11.0 +7.7 80 +7 +7 1018.8 1015.7
00 15.07 С 6
{15}
н/о н/о +10.9 +7.8 81 +8 +8 1018.8 1015.7
01 15.07 С 5
{9}
н/о н/о +10.8 +7.9 82 +8 +8 1019.1 1016.0
02 15.07 С 5
{9}
н/о н/о +10.9 +8.0 82 +8 +8 1018.7 1015.6
03 15.07 С 4
{7}
н/о н/о +10.8 +8.4 85 +8 +8 1018.7 1015.6
04 15.07 С 3
{5}
н/о н/о +10.8 +8.6 86 +9 +9 1018.5 1015.4
05 15.07 С 3
{4}
н/о н/о +10.8 +8.6 86 +9 +9 1018.4 1015.3
06 15.07 СЗ 2
{9}
н/о н/о +11.2 +8.6 84 +10 +10 1018.1 1015.0 +10.7 +11.5
07 15.07 СЗ 3
{3}
н/о н/о +11.1 +8.5 84 +9 +9 1018.0 1014.9
08 15.07 З 4
{4}
н/о н/о +11.2 +8.6 84 +9 +9 1017.9 1014.8
09 15.07 З 3
{4}
н/о н/о +11.3 +9.1 86 +9 +9 1017.9 1014.8
10 15.07 З 2
{3}
н/о н/о +11.4 +9.5 88 +10 +10 1017.8 1014.7
11 15.07 ЮЗ 2
{3}
н/о н/о +12.1 +10.2 88 +11 +11 1017.6 1014.5
12 15.07 ЮЗ 1
{4}
н/о н/о +12.8 +9.8 82 +13 +13 1017.4 1014.3
13 15.07 З 2
{3}
н/о н/о +12.3 +10.0 86 +11 +11 1017.5 1014.4
14 15.07 З 2
{3}
н/о н/о +12.5 +10.6 88 +12 +12 1017.2 1014.1
15 15.07 С 7
{9}
н/о н/о +11.2 +10.0 92 +8 +8 1016.6 1013.5
16 15.07 С 5
{9}
н/о н/о +11.7 +10.0 89 +9 +9 1016.9 1013.8
17 15.07 С 7
{8}
н/о н/о +11.9 +10.2 89 +9 +9 1016.9 1013.8
18 15.07 С 6
{10}
н/о н/о +11.5 +10.4 93 +8 +8 1016.8 1013.7 +10.9 +13.3
19 15.07 С 7
{9}
н/о н/о +11.5 +10.3 92 +8 +8 1016.9 1013.8
20 15.07 С 8
{10}
н/о н/о +11.5 +10.1 91 +8 +8 1016.7 1013.6
21 15.07 С 8
{9}
н/о н/о +12.0 +10.3 89 +9 +9 1016.6 1013.5
22 15.07
{11}
н/о н/о +11.6 +10.0 90 1017.0 1013.9
23 15.07 С 5
{9}
н/о н/о +11.8 +10.6 92 +9 +9 1017.2 1014.1
00 16.07
{11}
н/о н/о +11.9 +10.3 90 1017.1 1014.0
01 16.07
{9}
н/о н/о +11.8 +10.1 89 1017.3 1014.2
02 16.07 С 6
{9}
н/о н/о +11.7 +10.0 89 +9 +9 1016.9 1013.8
03 16.07
{9}
н/о н/о +11.7 +9.6 87 1016.8 1013.7
04 16.07 С 6
{9}
н/о н/о +11.7 +10.0 89 +9 +9 1016.5 1013.4
05 16.07 С 5
{9}
н/о н/о +11.7 +10.0 89 +9 +9 1016.5 1013.4
06 16.07 С 6
{9}
н/о н/о +11.7 +9.8 88 +9 +9 1016.2 1013.1 +11.5 +12.0
07 16.07
{8}
н/о н/о +12.2 +9.0 81 1016.0 1012.9
08 16.07
{10}
н/о н/о +12.3 +7.8 74 1015.9 1012.8
09 16.07 С 5
{9}
н/о н/о +12.3 +8.4 77 +10 +10 1015.5 1012.4
10 16.07 С 5
{9}
н/о н/о +12.5 +8.6 77 +10 +10 1015.2 1012.1
11 16.07 С 6
{9}
н/о н/о +12.9 +8.6 75 +11 +11 1014.8 1011.8
12 16.07 С 8
{10}
н/о н/о +12.4 +8.9 79 +9 +9 1014.5 1011.4
13 16.07 С 8
{11}
н/о н/о +12.4 +8.9 79 +9 +9 1014.2 1011.1
14 16.07 С 7
{10}
н/о н/о +12.6 +9.1 79 +10 +10 1013.9 1010.9
15 16.07 С 8
{11}
н/о н/о +12.6 +9.3 80 +10 +10 1013.7 1010.7
16 16.07 С 8
{10}
н/о н/о +12.4 +9.1 80 +9 +9 1013.5 1010.5
17 16.07 С 7
{10}
н/о н/о +12.3 +9.3 82 +9 +9 1013.7 1010.6
18 16.07 С 7
{11}
н/о н/о +11.9 +9.3 84 +9 +9 1013.5 1010.4 +11.6 +12.9
19 16.07 С 7
{9}
н/о н/о +12.0 +9.6 85 +9 +9 1013.2 1010.1
20 16.07 С 5
{8}
н/о н/о +12.0 +9.7 86 +10 +10 1013.4 1010.3
21 16.07 С 4
{7}
н/о н/о +11.8 +9.7 87 +10 +10 1013.3 1010.2
22 16.07 С 4
{6}
н/о н/о +11.7 +10.0 89 +9 +9 1013.3 1010.2
23 16.07
{6}
н/о н/о +11.5 +9.9 90 1013.3 1010.2
00 17.07 СЗ 3
{9}
н/о н/о +11.6 +10.2 91 +10 +10 1013.5 1010.4
01 17.07 С 2
{4}
н/о н/о +11.6 +10.4 92 +10 +10 1013.4 1010.3
02 17.07 СЗ 3
{4}
н/о н/о +11.5 +10.4 93 +10 +10 1013.4 1010.3
03 17.07 штиль 0
{3}
н/о н/о +11.4 +10.3 93 +11 +11 1013.0 1009.9
04 17.07 ЮВ 5
{6}
н/о н/о +11.6 +10.7 94 +9 +9 1012.9 1009.8
05 17.07 Ю 3
{5}
н/о н/о +11.6 +10.7 94 +10 +10 1013.0 1009.9
06 17.07 Ю 5
{6}
н/о н/о +11.8 +10.9 94 +9 +9 1012.9 1009.8 +11.4 +12.3
07 17.07 Ю 4
{5}
н/о н/о +11.9 +10.8 93 +10 +10 1012.9 1009.8
08 17.07 Ю 3
{4}
н/о н/о +12.1 +10.8 92 +10 +10 1012.7 1009.7
09 17.07 ЮЗ 3
{5}
н/о н/о +12.6 +11.2 91 +11 +11 1012.8 1009.8
10 17.07 Ю 3
{4}
н/о н/о +13.1 +11.0 87 +12 +12 1012.7 1009.7
11 17.07 ЮЗ 3
{3}
н/о н/о +13.8 +11.2 84 +13 +13 1012.7 1009.7
12 17.07 ЮЗ 2
{5}
н/о н/о +14.1 +11.3 83 +14 +14 1012.4 1009.4
13 17.07 ЮЗ 3
{4}
н/о н/о +14.2 +11.0 81 +13 +13 1012.3 1009.3
14 17.07 ЮЗ 2
{3}
н/о н/о +14.8 +11.0 78 +15 +15 1012.1 1009.1
15 17.07 З 2
{3}
н/о н/о +13.7 +11.2 85 +13 +13 1011.8 1008.8
16 17.07 В 1
{2}
н/о н/о +13.9 +10.3 79 +14 +14 1011.2 1008.2
17 17.07 Ю 2
{2}
н/о н/о +13.9 +10.9 82 +13 +13 1011.0 1008.0
18 17.07 Ю 2
{4}
н/о н/о +14.0 +11.0 82 +13 +13 1010.7 1007.7 +11.8 +15.3
19 17.07 ЮВ 2
{3}
н/о н/о +13.0 +10.5 85 +12 +12 1010.4 1007.4
20 17.07 ЮВ 3
{4}
н/о н/о +13.2 +10.0 81 +12 +12 1010.1 1007.1
21 17.07 ЮВ 4
{5}
н/о н/о +13.1 +10.1 82 +11 +11 1009.7 1006.7
22 17.07 ЮВ 4
{6}
н/о н/о +13.2 +10.6 84 +11 +11 1009.5 1006.5
23 17.07 Ю 4
{6}
н/о н/о +13.4 +10.4 82 +12 +12 1009.3 1006.3
00 18.07 Ю 5
{6}
н/о н/о +13.5 +10.1 80 +12 +12 1009.0 1006.0
01 18.07 Ю 4
{6}
н/о н/о +13.1 +10.8 86 +11 +11 1008.9 1005.9
02 18.07 Ю 7
{9}
н/о н/о +12.6 +11.3 92 +10 +10 1008.5 1005.5
03 18.07 Ю 7
{10}
н/о н/о +12.4 +11.1 92 +9 +9 1008.0 1005.0
04 18.07 Ю 7
{8}
н/о н/о +12.4 +11.3 93 +9 +9 1007.5 1004.5
05 18.07 Ю 7
{9}
н/о н/о +12.6 +11.5 93 +10 +10 1007.4 1004.4
06 18.07 Ю 5
{10}
н/о н/о +12.6 +11.3 92 +10 +10 1007.0 1004.0 +12.4
07 18.07 Ю 3
{7}
н/о н/о +12.7 +11.1 90 +11 +11 1007.0 1004.0
08 18.07 Ю 2
{4}
н/о н/о +13.1 +11.5 90 +12 +12 1006.9 1003.9
09 18.07 Ю 4
{6}
н/о н/о +13.1 +11.2 88 +11 +11 1006.9 1003.9
10 18.07 ЮВ 4
{5}
н/о н/о +13.6 +11.7 88 +12 +12 1006.7 1003.7
11 18.07 Ю 5
{7}
н/о н/о +13.7 +11.6 87 +12 +12 1006.5 1003.5
12 18.07 Ю 6
{7}
н/о н/о +13.8 +12.0 89 +12 +12 1006.7 1003.7
13 18.07 ЮВ 5
{7}
н/о н/о +13.5 +12.1 91 +11 +11 1006.5 1003.5
14 18.07 ЮВ 6
{8}
н/о н/о +13.8 +12.5 92 +12 +12 1006.4 1003.4
15 18.07 ЮВ 8
{9}
н/о н/о +14.5 +12.7 89 +12 +12 1006.1 1003.1
16 18.07 ЮВ 6
{9}
н/о н/о +14.1 +12.3 89 +12 +12 1006.2 1003.2
17 18.07 ЮВ 4
{8}
н/о н/о +14.0 +12.4 90 +12 +12 1005.9 1002.9
18 18.07 ЮВ 6
{9}
н/о н/о +14.3 +12.7 90 +12 +12 1005.5 1002.5 +12.6 +14.7
19 18.07 ЮВ 9
{13}
н/о н/о +15.1 +11.5 79 +13 +13 1005.5 1002.5
20 18.07 ЮВ 4
{9}
н/о н/о +13.7 +12.1 90 +12 +12 1005.6 1002.6
21 18.07 Ю 7
{8}
н/о н/о +14.5 +11.8 84 +12 +12 1005.5 1002.5
22 18.07 ЮВ 8
{9}
н/о н/о +14.4 +11.9 85 +12 +12 1005.2 1002.2
23 18.07 ЮВ 8
{11}
н/о н/о +14.6 +11.8 83 +12 +12 1005.3 1002.3
00 19.07 Ю 8
{13}
н/о н/о +13.9 +12.0 88 +11 +11 1005.5 1002.5
01 19.07 ЮВ 6
{8}
н/о н/о +13.7 +12.4 92 +11 +11 1005.4 1002.4
02 19.07 Ю 10
{12}
н/о н/о +13.1 +11.8 92 +10 +10 1005.7 1002.7
03 19.07 Ю 10
{14}
н/о н/о +13.3 +11.7 90 +10 +10 1006.0 1003.0
04 19.07 Ю 9
{12}
н/о н/о +12.8 +11.5 92 +10 +10 1006.6 1003.6
05 19.07 Ю 8
{12}
н/о н/о +12.3 +11.4 94 +9 +9 1007.2 1004.2
06 19.07 Ю 5
{14}
н/о н/о +12.3 +11.4 94 +10 +10 1007.7 1004.7 +12.3 +16.2
07 19.07 Ю 7
{8}
н/о н/о +12.9 +11.1 89 +10 +10 1008.1 1005.1
08 19.07 Ю 5
{7}
н/о н/о +13.2 +10.9 86 +11 +11 1008.5 1005.5
09 19.07 Ю 3
{6}
н/о н/о +13.6 +11.3 86 +12 +12 1008.9 1005.9
10 19.07 Ю 4
{6}
н/о н/о +13.9 +10.9 82 +12 +12 1009.1 1006.1

 

Местоположение метеостанции Маяк Ytteroyane (Норвегия): широта 61.57 долгота 4.68 высота над уровнем моря 26 м.

В архиве по умолчанию представлена погода на Маяке Ytteroyane за последнюю неделю. Архивные данные за месяц целиком и за предыдущие месяцы, начиная с января 2011 года, Вы можете получить, выбрав интересующий диапазон дат из раскрывающегося списка и нажав кнопку "Ввод!".


*Определитесь, кто Вы:
робот инопланетянин человек

Внимание! Время в таблицах - всемирное. Для получения местного времени необходимо прибавить поправку, которая равна 1 ч.

Смотрите также архив погоды в соседних городах и на ближайших метеорологических станциях:

Погода в Флоро аэропорту (Норвегия) (19 км)
Погода в Фурунесете (Норвегия) (37 км)
Погода на Маяке Krakenes (Норвегия) (54 км)
Погода во Флурё аэропорту (Норвегия) (61 км)
Погода во Флурё (Норвегия) (67 км)
Погода в Такле (Норвегия) (71 км)
Погода в Фиске (Норвегия) (76 км)
Погода в Сандан аэропорту (Норвегия) (80 км)
Погода в Берген аэропорту (Норвегия) (85 км)
Погода в Федье (Норвегия) (88 км)

Пояснения к столбцам:

Ветер - указаны скорость ветра в м/с - средняя за 10 мин, порывы в срок и между сроками (в фигурных скобках) и направление, откуда дует ветер: С - северный, СВ - северо-восточный, В - восточный, ЮВ - юго-восточный, Ю - южный, ЮЗ - юго-западный, З - западный, СЗ - северо-западный.
Видимость - горизонтальная дальность видимости в метрах или километрах. При видимости от 1 до 10 км при отсутствии осадков обычно наблюдается дымка, при ухудшении видимости до 1 км и менее - туман. В сухую погоду видимость может ухудшаться дымом, пылью или мглою.
Явления - указаны атмосферные явления, наблюдавшиеся в срок или в последний час перед сроком; фигурными скобками обозначены явления, наблюдавшиеся между сроками (за 1-3 часа до срока); квадратными скобками обозначены град или гололедные отложения с указанием их диаметра в мм.
Облачность - указаны через наклонную черту общая и нижняя облачность в баллах и высота нижней границы облаков в метрах; квадратными скобками обозначены формы облаков: Ci - перистые, Cs - перисто-слоистые, Cc - перисто-кучевые, Ac - высококучевые, As - высокослоистые, Sc - слоисто-кучевые, Ns - слоисто-дождевые, Cu - кучевые, Cb - кучево-дождевые. Подробнее классификацию облаков см. в Атласе облаков (PDF).
T - Температура воздуха - температура, измеренная на высоте 2 м над землей.
Td - Температура точки росы - температура, при понижении до которой содержащийся в воздухе водяной пар достигнет насыщения.
f - Относительная влажность воздуха - влажноcть воздуха, измеренная на высоте 2 м над землей.
Te - Эффективная температура - температура, которую ощущает одетый по сезону человек в тени. Характеристика душности погоды. При расчете учитывается влияние влажности воздуха и скорости ветра на теплоощущения человека.
Tes - Эффективная температура на солнце - температура, которую ощущает человек, с поправкой на солнечный нагрев. Характеристика знойности погоды. Зависит от высоты солнца над горизонтом, облачности и скорости ветра. Ночью, в пасмурную погоду, а также при ветре 12 м/с и более поправка равна нулю.
P - Атмосферное давление - приведенное к уровню моря атмосферное давление.
Po - Атмосферное давление - измеренное на уровне метеостанции атмосферное давление.
Tmin - Минимальная температура - минимум температуры воздуха на высоте 2 м над землей.
Tmax - Максимальная температура - максимум температуры воздуха на высоте 2 м над землей.
R - Количество осадков - Количество выпавших осадков за период времени, мм. При наведении курсора мыши на число - период времени, за который выпало указанное количество осадков.
R24 - Количество осадков - Количество выпавших осадков за 24 часа, мм.
S - Снежный покров - Высота снежного покрова, см. При наведении курсора мыши на число - состояние снежного покрова и степень покрытия местности в баллах.